When you browse on this site, cookies collect data to enhance your experience and personalize the content and advertising you see.
Visit our Privacy Policy to learn more. By continuing to use the site, you agree to this use of cookies and data.
  • In United Kingdom
  • List of Countries
  • For 7 days
  • Water Temperature
  • Satellite Maps
  • Weather Map
  • Weather Widgets
  • user-avatar
    Login

    Hourly Weather Shurci

    Today, 16 June, Sunday

    Time Temperature Precipitation Wind Pressure Humidity
    00:00 +28°C° 0 mm 2 mps 718 mmHg 25%
    01:00 +28°C° 0 mm 2 mps 718 mmHg 25%
    02:00 +27°C° 0 mm 2 mps 718 mmHg 25%
    03:00 +27°C° 0 mm 2 mps 718 mmHg 25%
    04:00 +26°C° 0 mm 2 mps 718 mmHg 26%
    05:00 +25°C° 0 mm 2 mps 718 mmHg 27%
    06:00 +28°C° 0 mm 1 mps 718 mmHg 24%
    07:00 +30°C° 0 mm 1 mps 719 mmHg 20%
    08:00 +32°C° 0 mm 1 mps 719 mmHg 17%
    09:00 +33°C° 0 mm 1 mps 719 mmHg 16%
    10:00 +35°C° 0 mm 2 mps 719 mmHg 14%
    11:00 +37°C° 0 mm 2 mps 720 mmHg 13%
    12:00 +37°C° 0 mm 2 mps 719 mmHg 12%
    13:00 +38°C° 0 mm 2 mps 719 mmHg 11%
    14:00 +39°C° 0 mm 2 mps 719 mmHg 10%
    15:00 +39°C° 0 mm 2 mps 718 mmHg 9%
    16:00 +39°C° 0 mm 2 mps 718 mmHg 9%
    17:00 +39°C° 0 mm 1 mps 718 mmHg 9%
    18:00 +37°C° 0 mm 2 mps 718 mmHg 10%
    19:00 +36°C° 0 mm 3 mps 718 mmHg 11%
    20:00 +34°C° 0 mm 3 mps 718 mmHg 12%
    21:00 +33°C° 0 mm 3 mps 718 mmHg 13%
    22:00 +31°C° 0 mm 2 mps 718 mmHg 13%
    23:00 +30°C° 0 mm 2 mps 717 mmHg 14%

    Tomorrow, 17 June, Monday

    Time Temperature Precipitation Wind Pressure Humidity
    00:00 +29°C° 0 mm 2 mps 717 mmHg 15%
    01:00 +28°C° 0 mm 1 mps 717 mmHg 16%
    02:00 +28°C° 0 mm 1 mps 717 mmHg 17%
    03:00 +27°C° 0 mm 1 mps 717 mmHg 18%
    04:00 +26°C° 0 mm 1 mps 716 mmHg 19%
    05:00 +26°C° 0 mm 1 mps 716 mmHg 20%
    06:00 +28°C° 0 mm 2 mps 717 mmHg 18%
    07:00 +29°C° 0 mm 2 mps 717 mmHg 15%
    08:00 +31°C° 0 mm 2 mps 717 mmHg 12%
    09:00 +34°C° 0 mm 2 mps 718 mmHg 11%
    10:00 +35°C° 0 mm 3 mps 718 mmHg 10%
    11:00 +37°C° 0 mm 3 mps 718 mmHg 8%
    12:00 +38°C° 0 mm 3 mps 717 mmHg 8%
    13:00 +38°C° 0 mm 3 mps 717 mmHg 8%
    14:00 +39°C° 0 mm 3 mps 717 mmHg 8%
    15:00 +39°C° 0 mm 3 mps 717 mmHg 7%
    16:00 +39°C° 0 mm 3 mps 716 mmHg 7%
    17:00 +40°C° 0 mm 3 mps 716 mmHg 6%
    18:00 +38°C° 0 mm 3 mps 716 mmHg 7%
    19:00 +36°C° 0 mm 4 mps 716 mmHg 8%
    20:00 +34°C° 0 mm 4 mps 716 mmHg 9%
    21:00 +33°C° 0 mm 3 mps 716 mmHg 10%
    22:00 +31°C° 0 mm 3 mps 716 mmHg 11%
    23:00 +29°C° 0 mm 2 mps 716 mmHg 12%

    Day after tomorrow, 18 June, Tuesday

    Time Temperature Precipitation Wind Pressure Humidity
    00:00 +29°C° 0 mm 2 mps 716 mmHg 12%
    01:00 +28°C° 0 mm 2 mps 715 mmHg 13%
    02:00 +28°C° 0 mm 2 mps 715 mmHg 13%
    03:00 +27°C° 0 mm 2 mps 715 mmHg 14%
    04:00 +26°C° 0 mm 2 mps 715 mmHg 15%
    05:00 +26°C° 0 mm 2 mps 715 mmHg 15%
    06:00 +28°C° 0 mm 2 mps 715 mmHg 14%
    07:00 +29°C° 0 mm 2 mps 716 mmHg 13%
    08:00 +31°C° 0 mm 2 mps 716 mmHg 12%
    09:00 +34°C° 0 mm 2 mps 716 mmHg 12%
    10:00 +35°C° 0 mm 3 mps 716 mmHg 11%
    11:00 +37°C° 0 mm 3 mps 716 mmHg 10%
    12:00 +38°C° 0 mm 3 mps 716 mmHg 9%
    13:00 +38°C° 0 mm 3 mps 716 mmHg 8%
    14:00 +39°C° 0 mm 3 mps 716 mmHg 8%
    15:00 +39°C° 0 mm 3 mps 716 mmHg 7%
    16:00 +39°C° 0 mm 2 mps 715 mmHg 7%
    17:00 +39°C° 0 mm 2 mps 715 mmHg 7%
    18:00 +37°C° 0 mm 2 mps 715 mmHg 8%
    19:00 +35°C° 0 mm 2 mps 715 mmHg 10%
    20:00 +32°C° 0 mm 2 mps 715 mmHg 11%
    21:00 +32°C° 0 mm 2 mps 715 mmHg 12%
    22:00 +31°C° 0 mm 2 mps 715 mmHg 13%
    23:00 +30°C° 0 mm 2 mps 715 mmHg 14%

    19 June, Wednesday

    Time Temperature Precipitation Wind Pressure Humidity
    00:00 +29°C° 0 mm 2 mps 715 mmHg 15%
    01:00 +28°C° 0 mm 2 mps 714 mmHg 16%
    02:00 +28°C° 0 mm 2 mps 714 mmHg 17%
    03:00 +27°C° 0 mm 2 mps 714 mmHg 17%
    04:00 +27°C° 0 mm 2 mps 714 mmHg 18%
    05:00 +26°C° 0 mm 2 mps 714 mmHg 19%
    06:00 +28°C° 0 mm 2 mps 714 mmHg 18%
    07:00 +30°C° 0 mm 2 mps 715 mmHg 17%
    08:00 +31°C° 0 mm 2 mps 715 mmHg 15%
    09:00 +34°C° 0 mm 3 mps 715 mmHg 14%
    10:00 +35°C° 0 mm 3 mps 715 mmHg 14%
    11:00 +37°C° 0 mm 3 mps 715 mmHg 13%
    12:00 +38°C° 0 mm 3 mps 715 mmHg 12%
    13:00 +39°C° 0 mm 3 mps 715 mmHg 11%
    14:00 +39°C° 0 mm 3 mps 715 mmHg 10%
    15:00 +40°C° 0 mm 3 mps 715 mmHg 9%
    16:00 +40°C° 0 mm 2 mps 715 mmHg 9%
    17:00 +40°C° 0 mm 2 mps 715 mmHg 9%
    18:00 +38°C° 0 mm 2 mps 715 mmHg 10%
    19:00 +36°C° 0 mm 2 mps 715 mmHg 11%
    20:00 +35°C° 0 mm 3 mps 714 mmHg 12%
    21:00 +34°C° 0 mm 2 mps 715 mmHg 13%
    22:00 +32°C° 0 mm 2 mps 715 mmHg 14%
    23:00 +31°C° 0 mm 2 mps 715 mmHg 15%

    20 June, Thursday

    Time Temperature Precipitation Wind Pressure Humidity
    00:00 +30°C° 0 mm 2 mps 715 mmHg 16%
    01:00 +30°C° 0 mm 2 mps 714 mmHg 17%
    02:00 +29°C° 0 mm 2 mps 714 mmHg 17%
    03:00 +28°C° 0 mm 2 mps 714 mmHg 19%
    04:00 +27°C° 0 mm 2 mps 714 mmHg 20%
    05:00 +27°C° 0 mm 2 mps 714 mmHg 21%
    06:00 +28°C° 0 mm 2 mps 714 mmHg 19%
    07:00 +30°C° 0 mm 3 mps 715 mmHg 18%
    08:00 +31°C° 0 mm 3 mps 715 mmHg 16%
    09:00 +34°C° 0 mm 3 mps 715 mmHg 14%
    10:00 +35°C° 0 mm 3 mps 715 mmHg 13%
    11:00 +37°C° 0 mm 3 mps 716 mmHg 11%
    12:00 +38°C° 0 mm 3 mps 715 mmHg 11%
    13:00 +39°C° 0 mm 3 mps 715 mmHg 10%
    14:00 +40°C° 0 mm 2 mps 715 mmHg 9%
    15:00 +40°C° 0 mm 2 mps 715 mmHg 9%
    16:00 +40°C° 0 mm 3 mps 715 mmHg 8%
    17:00 +40°C° 0 mm 3 mps 714 mmHg 8%
    18:00 +39°C° 0 mm 2 mps 714 mmHg 9%
    19:00 +37°C° 0 mm 2 mps 714 mmHg 10%
    20:00 +35°C° 0 mm 2 mps 714 mmHg 11%
    21:00 +33°C° 0 mm 1 mps 714 mmHg 12%
    22:00 +32°C° 0 mm 1 mps 714 mmHg 13%
    23:00 +30°C° 0 mm 1 mps 714 mmHg 14%

    21 June, Friday

    Time Temperature Precipitation Wind Pressure Humidity
    00:00 +30°C° 0 mm 1 mps 714 mmHg 15%
    01:00 +29°C° 0 mm 1 mps 714 mmHg 16%
    02:00 +29°C° 0 mm 1 mps 714 mmHg 17%
    03:00 +28°C° 0 mm 1 mps 714 mmHg 17%
    04:00 +28°C° 0 mm 2 mps 714 mmHg 18%
    05:00 +28°C° 0 mm 2 mps 714 mmHg 19%
    06:00 +30°C° 0 mm 2 mps 715 mmHg 17%
    07:00 +32°C° 0 mm 2 mps 715 mmHg 15%
    08:00 +35°C° 0 mm 2 mps 716 mmHg 13%
    09:00 +36°C° 0 mm 2 mps 716 mmHg 12%
    10:00 +38°C° 0 mm 3 mps 716 mmHg 11%
    11:00 +39°C° 0 mm 3 mps 716 mmHg 10%
    12:00 +40°C° 0 mm 3 mps 716 mmHg 9%
    13:00 +42°C° 0 mm 3 mps 716 mmHg 9%
    14:00 +43°C° 0 mm 3 mps 715 mmHg 8%
    15:00 +42°C° 0 mm 2 mps 715 mmHg 8%
    16:00 +42°C° 0 mm 2 mps 715 mmHg 7%
    17:00 +42°C° 0 mm 2 mps 715 mmHg 7%
    18:00 +40°C° 0 mm 2 mps 715 mmHg 8%
    19:00 +38°C° 0 mm 3 mps 714 mmHg 9%
    20:00 +36°C° 0 mm 3 mps 714 mmHg 10%
    21:00 +35°C° 0 mm 2 mps 714 mmHg 11%
    22:00 +32°C° 0 mm 2 mps 714 mmHg 12%
    23:00 +31°C° 0 mm 1 mps 714 mmHg 12%
    Show more